Regional Weather Roundup
Issued by NWS

Home | Current Version | Previous Version | Text Only | Print | Product List | Glossary On
Versions: 1 2 3 4 5 6 7 8 9 10 11 12 13 14 15 16 17 18 19 20 21 22 23 24 25 26 27 28 29 30 31 32 33 34 35 36 37 38 39 40 41 42 43 44 45 46 47 48 49 50
000
ASUS44 KFWD 200510
RWRTX
NORTH TEXAS HOURLY WEATHER ROUNDUP
NATIONAL WEATHER SERVICE FORT WORTH TX
1200 AM CDT SAT SEP 20 2014

NOTE: "FAIR" INDICATES FEW OR NO CLOUDS BELOW 12,000 FEET WITH NO
SIGNIFICANT WEATHER AND/OR OBSTRUCTIONS TO VISIBILITY.

TXZ118-119-200600-
DALLAS/FORT WORTH METROPLEX

CITY           SKY/WX    TMP DP  RH WIND       PRES   REMARKS
DFW AIRPORT    MOCLDY    80  69  69 SE9       29.95S
DALLAS LOVE    MOCLDY    80  70  71 E10       29.95S
FTW MEACHAM    MOCLDY    80  68  66 SE9       29.95S
DAL-EXECUTIVE  PTCLDY    78  70  76 E7        29.96S
FTW-ALLIANCE   CLOUDY    79  69  71 SE13      29.95S
FTW-NAS-JRB    PTCLDY    82  66  58 SE7       29.99S
FTW-SPINKS     PTCLDY    75  68  79 SE3       29.97S
ARLINGTON      CLEAR     78  68  71 E6        29.96S
GRAND PRAIRIE  CLEAR     78  67  69 E8        29.97S
ADDISON        CLOUDY    80  69  67 SE10      29.97F
MESQUITE       CLEAR     76  69  81 CALM      29.96S
LANCASTER      CLEAR     74  68  82 CALM      29.97S
$$

TXZ091>094-102>105-117-120-121-131>134-200600-
NORTH CENTRAL TEXAS

CITY           SKY/WX    TMP DP  RH WIND       PRES   REMARKS
SHRMAN/DENISON CLEAR     74  69  82 E8        29.98F
GAINESVILLE    CLEAR     73  69  87 E3        29.99S
BOWIE          PTCLDY    74  69  86 E3        29.98S
BRIDGEPORT     PTCLDY    74  66  74 SE5       29.98S
DECATUR        PTCLDY    76  66  71 SE7       29.97S
DENTON         PTCLDY    78  69  73 SE8       29.96S
MCKINNEY       MOCLDY    77  70  79 SE7       29.97S
GREENVILLE     PTCLDY    73  68  83 E3        29.97S
ROCKWALL       PTCLDY    76  71  86 E5        29.96S
TERRELL        MOCLDY    78  72  81 E5        29.97R
WAXAHACHIE     CLEAR     74  66  75 CALM      29.97F
CLEBURNE       PTCLDY    75  73  94 SE7       29.98S
GRANBURY       MOCLDY    79  71  76 SE6       29.97S
$$

TXZ083>090-098>101-113>116-127>130-139>142-154-155-200600-
WESTERN NORTH TEXAS

CITY           SKY/WX    TMP DP  RH WIND       PRES   REMARKS
WICHITA FALLS  CLOUDY    75  68  78 SE9       29.96R
WF-KICKAPOO    MOCLDY    75  66  74 E5        29.97S
VERNON         PTCLDY    74  64  72 SE5       29.98S
ABILENE        CLOUDY    74  70  87 SE3       29.99R
ABILENE-DYESS  CLOUDY    73  66  77 SE6       29.98S
BRECKENRIDGE   MOCLDY    76  67  73 SE3       29.96S
GRAHAM         MOCLDY    76  67  72 SE3       29.95F
MINERAL WELLS  LGT RAIN  77  68  73 SE7       29.95S
STEPHENVILLE   PTCLDY    75  69  81 SE6       29.99F
COMANCHE       PTCLDY    73  70  90 SE3       29.97S
BROWNWOOD      CLOUDY    73  72  94 CALM      29.97S
COLEMAN        MOCLDY    72  69  92 CALM      29.98S
BRADY          CLEAR     70  70 100 E3        29.97S FOG
$$

TXZ143>147-156>162-174-175-200600-
CENTRAL TEXAS

CITY           SKY/WX    TMP DP  RH WIND       PRES   REMARKS
WACO           MOCLDY    76  71  85 SE6       29.95S
WACO-MCGREGOR  CLEAR     73  66  78 E5        29.97S
HILLSBORO      PTCLDY    75  69  80 E3        29.96F
CORSICANA      PTCLDY    77  70  79 SE5       29.97R
MEXIA          PTCLDY    74  72  94 CALM      29.95R
HEARNE         CLEAR     74  73  93 CALM      29.94F
CAMERON        CLEAR     75  73  96 SE3       29.93F
TEMPLE         PTCLDY    73  68  83 E6        29.95S
KILLEEN        PTCLDY    75  72  88 E8        29.94R
KILLEEN-SKYLRK CLEAR     73  68  83 SE6       29.95S
FORT HOOD      PTCLDY    76  72  87 E6        29.96S
GATESVILLE     CLEAR     73  72  94 CALM      29.98S
HAMILTON       PTCLDY    74  73  98 E13       29.98S
LAMPASAS       CLEAR     76  74  94 CALM      29.96S
$$

TXZ095>097-106>112-122>126-135>138-148>153-164>167-200600-
EAST TEXAS

CITY           SKY/WX    TMP DP  RH WIND       PRES   REMARKS
PARIS          CLEAR     73  66  78 E8        29.99S
SULPHUR SPRNGS CLEAR     73  71  91 E7        30.00S
MOUNT PLEASANT CLEAR     73  70  90 E5        29.99S
GILMER         CLEAR     75  72  88 CALM      29.99S
MINEOLA        CLEAR     72  72 100 CALM      29.98S FOG
TYLER          CLEAR     76  70  82 SE5       29.97R
LONGVIEW       CLEAR     73  69  87 E5        29.96F
MARSHALL       CLEAR     73  70  88 CALM      30.00R
ATHENS         CLEAR     72  68  88 CALM      29.96S
PALESTINE      CLEAR     73  72  96 CALM      29.97S
JACKSONVILLE   CLEAR     75  70  83 CALM      29.99S
HENDERSON      CLEAR     71  70  95 CALM      29.97F
NACOGDOCHES    CLEAR     70  68  94 CALM      29.97S
LUFKIN         CLEAR     74  70  87 CALM      29.95S
$$

SUPPLEMENTAL OBSERVATIONS (CENTRAL)

CITY           SKY/WX    TMP DP  RH WIND       PRES   REMARKS
CADDO GRASSLND   N/A     73  68  83 SE3         N/A
PAT MAYSE LAKE   N/A     73  68  83 E5          N/A
PALESTINE        N/A     72  68  88 CALM        N/A
MCGREGOR         N/A     73  68  83 E3          N/A
TEMPLE           N/A     73  70  88 E5          N/A
$$

SUPPLEMENTAL OBSERVATIONS (WEST)

CITY           SKY/WX    TMP DP  RH WIND       PRES   REMARKS
MILLERS CREEK    N/A     73  64  73 SE6         N/A
POSSUM KINGDOM   N/A     75  66  73 SE5         N/A
LBJ GRASSLAND    N/A     75  66  73 E6          N/A
GRANBURY         N/A     79  72  78 SE8         N/A
HAMBY            N/A     73  70  88 SE2         N/A
$$

SUPPLEMENTAL OBSERVATIONS (EAST)

CITY           SKY/WX    TMP DP  RH WIND       PRES   REMARKS
TEXARKANA        N/A     72  68  88 E1          N/A
LINDEN           N/A     72  68  88 CALM        N/A
GILMER           N/A     73  70  88 SE1         N/A
HENDERSON        N/A     73  70  88 E1          N/A
LUFKIN           N/A     72  68  88 MISG        N/A
N SABINE NF      N/A     70  66  88 MISG        N/A
$$

SUPPLEMENTAL OBSERVATIONS ARE A COLLECTION OF AUTOMATED INSTRUMENTS
THAT ARE MAINTAINED BY A VARIETY OF FEDERAL AND STATE AGENCIES.
CERTAIN ELEMENTS...SUCH AS HUMIDITY VALUES AND SUSTAINED WIND
SPEEDS...MAY BE APPROXIMATED.



USA.gov is the U.S. government's official web portal to all federal, state and local government web resources and services.